This is the latest recevied weather packets stored in our database for station/object KF0ZH. If no packets are shown the sender has not sent any weather packets the latest 10 day(s).
| Time | Temp. | Humidity | Pressure | Rain* | Wind** | Luminosity | Snow |
|---|---|---|---|---|---|---|---|
| 1777585020 | 10° C | 54% | 1015.3 hPa | 0 mm | 2.68 m/s, 300° | - | - |
| 1777584720 | 10° C | 54% | 1015.2 hPa | 0 mm | 3.13 m/s, 1° | - | - |
| 1777584421 | 10° C | 53% | 1015.3 hPa | 0 mm | 0 m/s | - | - |
| 1777584120 | 10.56° C | 54% | 1015.3 hPa | 0 mm | 3.13 m/s, 310° | - | - |
| 1777583820 | 10.56° C | 54% | 1015.4 hPa | 0 mm | 1.79 m/s, 306° | - | - |
| 1777582620 | 9.44° C | 56% | 1015.6 hPa | 0 mm | 2.68 m/s, 345° | - | - |
| 1777582320 | 9.44° C | 54% | 1015.6 hPa | 0 mm | 2.24 m/s, 16° | - | - |
| 1777581721 | 10° C | 55% | 1015.7 hPa | 0 mm | 3.13 m/s, 358° | - | - |
| 1777581420 | 9.44° C | 54% | 1015.8 hPa | 0 mm | 0 m/s | - | - |
| 1777581120 | 10° C | 56% | 1015.7 hPa | 0 mm | 4.47 m/s, 345° | - | - |
| 1777580820 | 9.44° C | 55% | 1015.8 hPa | 0 mm | 0 m/s | - | - |
| 1777580521 | 10° C | 54% | 1015.9 hPa | 0 mm | 2.68 m/s, 336° | - | - |
| 1777580223 | 9.44° C | 56% | 1015.9 hPa | 0 mm | 0 m/s | - | - |
| 1777579620 | 9.44° C | 55% | 1016.1 hPa | 0 mm | 3.13 m/s, 22° | - | - |
| 1777579320 | 9.44° C | 55% | 1016.2 hPa | 0 mm | 2.24 m/s, 1° | - | - |
| 1777579020 | 10° C | 58% | 1016.2 hPa | 0 mm | 3.13 m/s, 47° | - | - |
| 1777578420 | 9.44° C | 56% | 1016.3 hPa | 0 mm | 0.89 m/s, 302° | - | - |
| 1777578120 | 9.44° C | 56% | 1016.3 hPa | 0 mm | 5.81 m/s, 331° | - | - |
| 1777577820 | 8.89° C | 56% | 1016.4 hPa | 0 mm | 1.34 m/s, 312° | - | - |
| 1777577520 | 8.89° C | 58% | 1016.4 hPa | 0 mm | 0 m/s | - | - |
| 1777577220 | 9.44° C | 55% | 1016.5 hPa | 0 mm | 2.24 m/s, 29° | - | - |
| 1777576619 | 8.89° C | 58% | 1016.5 hPa | 0 mm | 4.02 m/s, 327° | - | - |
| 1777576020 | 8.33° C | 59% | 1016.7 hPa | 0 mm | 1.79 m/s, 296° | - | - |
| 1777575720 | 8.89° C | 57% | 1016.7 hPa | 0 mm | 6.71 m/s, 347° | - | - |
| 1777575420 | 8.33° C | 57% | 1016.6 hPa | 0 mm | 2.68 m/s, 327° | - | - |
* Rain latest hour (hover to see other rain measurements)
** Current wind speed in m/s (hover to see current wind gust speed)